Time,TemperatureF,DewpointF,PressureIn,WindDirection,WindDirectionDegrees,WindSpeedMPH,WindSpeedGustMPH,Humidity,HourlyPrecipIn,Conditions,Clouds,dailyrainin,SoftwareType,DateUTC
2013-04-19 00:03:00,53.0,43.0,-100.00,NW,320,7.0,15.0,69,-99.99,,,-99.99,,2013-04-19 04:03:00,
2013-04-19 00:13:00,53.0,44.0,-100.00,WNW,295,7.0,13.0,71,-99.99,,,-99.99,,2013-04-19 04:13:00,
2013-04-19 00:23:00,53.0,44.0,-100.00,WNW,295,7.0,13.0,71,-99.99,,,-99.99,,2013-04-19 04:23:00,
2013-04-19 01:03:00,53.0,46.0,-100.00,NNW,335,8.0,13.0,76,-99.99,,,-99.99,,2013-04-19 05:03:00,
2013-04-19 01:12:00,53.0,46.0,-100.00,NW,310,6.0,13.0,78,-99.99,,,-99.99,,2013-04-19 05:12:00,
2013-04-19 01:22:00,53.0,46.0,-100.00,NW,310,6.0,13.0,78,-99.99,,,-99.99,,2013-04-19 05:22:00,
2013-04-19 02:52:00,53.0,50.0,-100.00,NW,315,5.0,8.0,91,-99.99,,,-99.99,,2013-04-19 06:52:00,
2013-04-19 03:02:00,53.0,50.0,-100.00,WNW,300,5.0,10.0,91,-99.99,,,-99.99,,2013-04-19 07:02:00,
2013-04-19 03:12:00,53.0,51.0,-100.00,NW,310,6.0,12.0,92,-99.99,,,-99.99,,2013-04-19 07:12:00,
2013-04-19 03:21:00,53.0,51.0,-100.00,NW,315,6.0,12.0,93,-99.99,,,-99.99,,2013-04-19 07:21:00,
2013-04-19 03:32:00,53.0,51.0,-100.00,NW,315,6.0,12.0,93,-99.99,,,-99.99,,2013-04-19 07:32:00,
2013-04-19 03:42:00,53.0,51.0,-100.00,NNW,330,7.0,10.0,94,-99.99,,,-99.99,,2013-04-19 07:42:00,
2013-04-19 03:52:00,53.0,52.0,-100.00,NW,320,5.0,9.0,94,-99.99,,,-99.99,,2013-04-19 07:52:00,
2013-04-19 04:02:00,53.0,52.0,-100.00,NNW,335,3.0,9.0,95,-99.99,,,-99.99,,2013-04-19 08:02:00,
2013-04-19 04:12:00,54.0,52.0,-100.00,NW,320,5.0,10.0,95,-99.99,,,-99.99,,2013-04-19 08:12:00,
2013-04-19 04:22:00,54.0,52.0,-100.00,NW,305,2.0,8.0,95,-99.99,,,-99.99,,2013-04-19 08:22:00,
2013-04-19 04:33:00,54.0,53.0,-100.00,NNW,340,3.0,6.0,96,-99.99,,,-99.99,,2013-04-19 08:33:00,
2013-04-19 04:42:00,54.0,53.0,-100.00,NW,320,2.0,6.0,95,-99.99,,,-99.99,,2013-04-19 08:42:00,
2013-04-19 04:52:00,54.0,53.0,-100.00,WNW,295,2.0,7.0,96,-99.99,,,-99.99,,2013-04-19 08:52:00,
2013-04-19 05:01:00,55.0,54.0,-100.00,NW,310,3.0,6.0,96,-99.99,,,-99.99,,2013-04-19 09:01:00,
2013-04-19 05:10:00,55.0,54.0,-100.00,NW,310,2.0,8.0,97,-99.99,,,-99.99,,2013-04-19 09:10:00,
2013-04-19 05:12:00,55.0,54.0,-100.00,NW,320,5.0,10.0,96,-99.99,,,-99.99,,2013-04-19 09:12:00,
2013-04-19 05:21:00,55.0,54.0,-100.00,NNW,330,3.0,8.0,97,-99.99,,,-99.99,,2013-04-19 09:21:00,
2013-04-19 05:33:00,55.0,54.0,-100.00,WNW,300,2.0,10.0,97,-99.99,,,-99.99,,2013-04-19 09:33:00,
2013-04-19 05:43:00,55.0,54.0,-100.00,NW,305,6.0,10.0,97,-99.99,,,-99.99,,2013-04-19 09:43:00,
2013-04-19 05:52:00,55.0,54.0,-100.00,NW,310,2.0,8.0,97,-99.99,,,-99.99,,2013-04-19 09:52:00,
2013-04-19 06:02:00,55.0,54.0,-100.00,NW,310,2.0,8.0,97,-99.99,,,-99.99,,2013-04-19 10:02:00,
2013-04-19 07:11:00,58.0,57.0,-100.00,NW,325,6.0,13.0,97,-99.99,,,-99.99,,2013-04-19 11:11:00,
2013-04-19 07:22:00,58.0,57.0,-100.00,NNW,345,8.0,14.0,96,-99.99,,,-99.99,,2013-04-19 11:22:00,
2013-04-19 07:32:00,58.0,57.0,-100.00,NW,315,7.0,14.0,95,-99.99,,,-99.99,,2013-04-19 11:32:00,
2013-04-19 07:42:00,58.0,57.0,-100.00,NW,310,7.0,14.0,94,-99.99,,,-99.99,,2013-04-19 11:42:00,
2013-04-19 07:52:00,59.0,57.0,-100.00,NNW,340,5.0,10.0,94,-99.99,,,-99.99,,2013-04-19 11:52:00,
2013-04-19 08:03:00,59.0,57.0,-100.00,NW,320,6.0,14.0,93,-99.99,,,-99.99,,2013-04-19 12:03:00,
2013-04-19 08:12:00,59.0,57.0,-100.00,NW,305,5.0,16.0,93,-99.99,,,-99.99,,2013-04-19 12:12:00,
2013-04-19 08:22:00,60.0,57.0,-100.00,NW,320,6.0,13.0,91,-99.99,,,-99.99,,2013-04-19 12:22:00,
2013-04-19 08:32:00,60.0,57.0,-100.00,NW,305,7.0,18.0,90,-99.99,,,-99.99,,2013-04-19 12:32:00,
2013-04-19 08:42:00,61.0,58.0,-100.00,WNW,285,5.0,16.0,89,-99.99,,,-99.99,,2013-04-19 12:42:00,
2013-04-19 08:52:00,62.0,58.0,-100.00,NW,305,7.0,14.0,86,-99.99,,,-99.99,,2013-04-19 12:52:00,
2013-04-19 09:02:00,62.0,58.0,-100.00,West,280,7.0,15.0,86,-99.99,,,-99.99,,2013-04-19 13:02:00,
2013-04-19 09:11:00,62.0,58.0,-100.00,NW,320,8.0,15.0,85,-99.99,,,-99.99,,2013-04-19 13:11:00,
2013-04-19 10:22:00,68.0,59.0,-100.00,WNW,295,6.0,21.0,73,-99.99,,,-99.99,,2013-04-19 14:22:00,
2013-04-19 10:32:00,70.0,59.0,-100.00,NW,305,7.0,16.0,69,-99.99,,,-99.99,,2013-04-19 14:32:00,
2013-04-19 10:43:00,70.0,59.0,-100.00,North,5,7.0,14.0,67,-99.99,,,-99.99,,2013-04-19 14:43:00,
2013-04-19 10:52:00,70.0,59.0,-100.00,NW,315,12.0,22.0,68,-99.99,,,-99.99,,2013-04-19 14:52:00,
2013-04-19 11:02:00,69.0,58.0,-100.00,NW,310,12.0,23.0,68,-99.99,,,-99.99,,2013-04-19 15:02:00,
2013-04-19 11:10:00,72.0,59.0,-100.00,WNW,295,12.0,21.0,64,-99.99,,,-99.99,,2013-04-19 15:10:00,
2013-04-19 11:12:00,70.0,59.0,-100.00,North,10,6.0,24.0,67,-99.99,,,-99.99,,2013-04-19 15:12:00,
2013-04-19 11:22:00,71.0,59.0,-100.00,WNW,285,10.0,18.0,66,-99.99,,,-99.99,,2013-04-19 15:22:00,
2013-04-19 11:33:00,72.0,59.0,-100.00,NW,305,9.0,17.0,65,-99.99,,,-99.99,,2013-04-19 15:33:00,
2013-04-19 11:43:00,72.0,60.0,-100.00,NW,320,9.0,18.0,65,-99.99,,,-99.99,,2013-04-19 15:43:00,
2013-04-19 11:52:00,72.0,59.0,-100.00,WNW,295,12.0,21.0,64,-99.99,,,-99.99,,2013-04-19 15:52:00,
2013-04-19 12:03:00,72.0,59.0,-100.00,WNW,295,12.0,21.0,64,-99.99,,,-99.99,,2013-04-19 16:03:00,
2013-04-19 13:12:00,73.0,59.0,-100.00,NW,310,9.0,28.0,62,-99.99,,,-99.99,,2013-04-19 17:12:00,
2013-04-19 13:22:00,73.0,59.0,-100.00,NW,310,9.0,28.0,62,-99.99,,,-99.99,,2013-04-19 17:22:00,
2013-04-19 15:11:00,74.0,59.0,-100.00,NW,320,14.0,30.0,61,-99.99,,,-99.99,,2013-04-19 19:11:00,
2013-04-19 15:21:00,74.0,59.0,-100.00,NW,310,18.0,27.0,60,-99.99,,,-99.99,,2013-04-19 19:21:00,
2013-04-19 15:32:00,73.0,59.0,-100.00,NW,310,14.0,28.0,62,-99.99,,,-99.99,,2013-04-19 19:32:00,
2013-04-19 15:42:00,75.0,60.0,-100.00,NW,325,15.0,27.0,60,-99.99,,,-99.99,,2013-04-19 19:42:00,
2013-04-19 15:52:00,76.0,61.0,-100.00,NNW,330,9.0,22.0,60,-99.99,,,-99.99,,2013-04-19 19:52:00,
2013-04-19 16:02:00,74.0,60.0,-100.00,WNW,300,14.0,25.0,61,-99.99,,,-99.99,,2013-04-19 20:02:00,
2013-04-19 16:11:00,73.0,60.0,-100.00,NW,315,15.0,30.0,63,-99.99,,,-99.99,,2013-04-19 20:11:00,
2013-04-19 16:22:00,72.0,60.0,-100.00,NNW,335,16.0,27.0,66,-99.99,,,-99.99,,2013-04-19 20:22:00,
2013-04-19 16:32:00,72.0,61.0,-100.00,NW,325,14.0,36.0,68,-99.99,,,-99.99,,2013-04-19 20:32:00,
2013-04-19 16:42:00,71.0,61.0,-100.00,NNW,335,15.0,30.0,70,-99.99,,,-99.99,,2013-04-19 20:42:00,
2013-04-19 16:52:00,71.0,62.0,-100.00,NNW,330,12.0,25.0,74,-99.99,,,-99.99,,2013-04-19 20:52:00,
2013-04-19 17:01:00,68.0,62.0,-100.00,NW,325,10.0,20.0,82,-99.99,,,-99.99,,2013-04-19 21:01:00,
2013-04-19 17:12:00,68.0,62.0,-100.00,NW,305,12.0,20.0,82,-99.99,,,-99.99,,2013-04-19 21:12:00,
2013-04-19 17:21:00,68.0,63.0,-100.00,NNW,330,8.0,22.0,84,-99.99,,,-99.99,,2013-04-19 21:21:00,
2013-04-19 17:32:00,68.0,63.0,-100.00,NNW,330,8.0,22.0,84,-99.99,,,-99.99,,2013-04-19 21:32:00,
2013-04-19 17:43:00,69.0,63.0,-100.00,WNW,290,9.0,17.0,79,-99.99,,,-99.99,,2013-04-19 21:43:00,